Weather History for EGLC - March, 2013

Change the Weather History Date:

Tuesday, March 5, 2013

  Actual Average Record
Temperature  
Mean Temperature 46 °F -  
Max Temperature 60 °F 47 °F 60 °F (2013)
Min Temperature 33 °F 39 °F 28 °F (2001)
Degree Days  
Heating Degree Days 18    
Moisture  
Dew Point 38 °F    
Average Humidity 76    
Maximum Humidity 100    
Minimum Humidity 45    
Precipitation  
Precipitation 0.00 in - - ()
Sea Level Pressure  
Sea Level Pressure 29.66 in    
Wind  
Wind Speed 2 mph ()    
Max Wind Speed 8 mph    
Max Gust Speed 18 mph    
Visibility 2.7 miles    
Events      
Averages and records for this station are not official NWS values.
T = Trace of Precipitation, MM = Missing Value Source: Averaged Metar Reports

Daily Weather History Graph

Daily Weather History Graph

Search for Another Location

Airport or City:

Trip Planner

Search our weather history database for the weather conditions in past years. The results will help you decide how hot, cold, wet, or windy it might be!

Date:

Astronomy

Mar. 05, 2013 Rise Set
Actual Time 6:36 AM GMT 5:47 PM GMT
Civil Twilight 6:02 AM GMT 6:20 PM GMT
Nautical Twilight 5:24 AM GMT 6:59 PM GMT
Astronomical Twilight 4:45 AM GMT 7:38 PM GMT
Moon 2:04 AM GMT (3/5) 10:39 AM GMT (3/5)
Length of Visible Light 12h 17m
Length of Day
11h 11m
Last Quarter, 43% of the Moon is Illuminated
Mar 5
Last Quarter
Mar 11
New
Mar 19
First Quarter
Mar 27
Full
Apr 3
Last Quarter

Hourly Weather History & Observations

Time (GMT) Temp. Windchill Dew Point Humidity Pressure Visibility Wind Dir Wind Speed Gust Speed Precip Events Conditions
12:20 AM 35.6 °F - 33.8 °F 93% 29.74 in 1.8 mi NE 2.3 mph - N/A   Mist
12:50 AM 35.6 °F - 33.8 °F 93% 29.74 in 1.7 mi Variable 2.3 mph - N/A   Mist
1:20 AM 35.6 °F - 33.8 °F 93% 29.74 in 1.6 mi Calm Calm - N/A   Mist
1:50 AM 35.6 °F 32.8 °F 35.6 °F 100% 29.74 in 1.7 mi NE 3.5 mph - N/A   Mist
2:20 AM 35.6 °F - 33.8 °F 93% 29.74 in 1.7 mi ENE 2.3 mph - N/A   Mist
2:50 AM 33.8 °F - 33.8 °F 100% 29.71 in 1.4 mi Calm Calm - N/A   Mist
3:20 AM 33.8 °F - 33.8 °F 100% 29.71 in 1.5 mi Calm Calm - N/A   Mist
3:50 AM 35.6 °F - 33.8 °F 93% 29.71 in 1.4 mi East 2.3 mph - N/A   Mist
4:20 AM 35.6 °F - 33.8 °F 93% 29.71 in 1.6 mi Calm Calm - N/A   Mist
4:50 AM 35.6 °F - 33.8 °F 93% 29.71 in 1.4 mi ENE 2.3 mph - N/A   Mist
5:20 AM 35.6 °F - 35.6 °F 100% 29.71 in 1.5 mi Variable 2.3 mph - N/A   Mist
5:50 AM 35.6 °F - 33.8 °F 93% 29.71 in 1.5 mi Calm Calm - N/A   Mist
6:20 AM 35.6 °F - 33.8 °F 93% 29.68 in 1.6 mi ENE 2.3 mph - N/A   Mist
6:50 AM 35.6 °F 32.8 °F 35.6 °F 100% 29.68 in - NE 3.5 mph - N/A   Mist
7:20 AM 35.6 °F - 35.6 °F 100% 29.68 in 1.6 mi Calm Calm - N/A   Mist
7:50 AM 37.4 °F - 35.6 °F 93% 29.71 in 2.8 mi NE 2.3 mph - N/A   Mist
8:20 AM 39.2 °F - 37.4 °F 93% 29.71 in 2.8 mi Calm Calm - N/A   Mist
8:50 AM 39.2 °F - 37.4 °F 93% 29.71 in 2.8 mi Variable 2.3 mph - N/A   Mist
9:20 AM 42.8 °F - 39.2 °F 87% 29.68 in 2.8 mi Variable 2.3 mph - N/A   Mist
9:50 AM 44.6 °F - 39.2 °F 81% 29.68 in 3.1 mi Calm Calm - N/A   Unknown
10:20 AM 46.4 °F - 39.2 °F 76% 29.68 in 3.1 mi Calm Calm - N/A   Unknown
10:50 AM 50.0 °F - 39.2 °F 66% 29.68 in 3.1 mi Calm Calm - N/A   Mist
11:20 AM 51.8 °F - 41.0 °F 67% 29.68 in 3.7 mi Calm Calm - N/A   Unknown
11:50 AM 53.6 °F - 41.0 °F 62% 29.68 in 5.6 mi Calm Calm - N/A   Unknown
12:20 PM 57.2 °F - 41.0 °F 55% 29.65 in - Calm Calm - N/A   Clear
12:50 PM 59.0 °F - 41.0 °F 51% 29.65 in - SSW 4.6 mph - N/A   Clear
1:20 PM 60.8 °F - 41.0 °F 48% 29.62 in - South 4.6 mph 18.4 mph N/A   Clear
1:50 PM 60.8 °F - 39.2 °F 45% 29.62 in - SE 5.8 mph - N/A   Clear
2:20 PM 60.8 °F - 41.0 °F 48% 29.62 in - SSE 4.6 mph - N/A   Clear
2:50 PM 59.0 °F - 39.2 °F 48% 29.62 in - SE 8.1 mph - N/A   Clear
3:20 PM 59.0 °F - 41.0 °F 51% 29.59 in - Variable 5.8 mph - N/A   Clear
3:50 PM 59.0 °F - 41.0 °F 51% 29.59 in - ESE 6.9 mph - N/A   Clear
4:20 PM 59.0 °F - 41.0 °F 51% 29.59 in - ESE 8.1 mph - N/A   Clear
4:50 PM 57.2 °F - 39.2 °F 51% 29.59 in - SE 6.9 mph - N/A   Clear
5:20 PM 55.4 °F - 39.2 °F 54% 29.59 in - SE 5.8 mph - N/A   Clear
5:50 PM 55.4 °F - 41.0 °F 58% 29.62 in - ESE 6.9 mph - N/A   Clear
6:20 PM 51.8 °F - 41.0 °F 67% 29.62 in - ESE 6.9 mph - N/A   Clear
6:50 PM 50.0 °F - 37.4 °F 62% 29.62 in - ESE 6.9 mph - N/A   Clear
7:20 PM 50.0 °F - 37.4 °F 62% 29.62 in - East 4.6 mph - N/A   Clear
7:50 PM 50.0 °F - 37.4 °F 62% 29.62 in - East 4.6 mph - N/A   Clear
8:20 PM 48.2 °F - 39.2 °F 71% 29.62 in - ENE 4.6 mph - N/A   Clear
8:50 PM 46.4 °F 43.5 °F 39.2 °F 76% 29.62 in - ENE 5.8 mph - N/A   Clear
9:20 PM 44.6 °F 42.2 °F 39.2 °F 81% 29.62 in - ENE 4.6 mph - N/A   Clear
9:50 PM 44.6 °F 42.2 °F 39.2 °F 81% 29.62 in - East 4.6 mph - N/A   Clear
10:20 PM 44.6 °F 42.2 °F 39.2 °F 81% 29.62 in 5.6 mi East 4.6 mph - N/A   Unknown
10:50 PM 44.6 °F 42.2 °F 39.2 °F 81% 29.62 in 5.6 mi ENE 4.6 mph - N/A   Unknown
11:20 PM 44.6 °F 43.1 °F 39.2 °F 81% 29.62 in 5.0 mi ENE 3.5 mph - N/A   Unknown
11:50 PM 44.6 °F 42.2 °F 39.2 °F 81% 29.59 in 5.0 mi ENE 4.6 mph - N/A   Unknown